Regional Weather Roundup
Issued by NWS

Home | Current Version | Previous Version | Graphics & Text | Print | Product List | Glossary On
Versions: 1 2 3 4 5 6 7 8 9 10 11 12 13 14 15 16 17 18 19 20 21 22 23 24 25 26 27 28 29 30 31 32 33 34 35 36 37 38 39 40 41 42 43 44 45 46 47 48 49 50
881
ASUS43 KFSD 141302
RWRSD

WEATHER ROUNDUP FOR SOUTH DAKOTA
NATIONAL WEATHER SERVICE SIOUX FALLS SD
700 AM CST SUN FEB 14 2016

NOTE: "FAIR" INDICATES FEW OR NO CLOUDS BELOW 12,000 FEET WITH NO
SIGNIFICANT WEATHER AND/OR OBSTRUCTIONS TO VISIBILITY.


SDZ001>005-009-010-012>017-141400-
NORTHWEST AND NORTH CENTRAL SOUTH DAKOTA

CITY           SKY/WX    TMP DP  RH WIND       PRES   REMARKS
BUFFALO          N/A     31  25  78 W12       29.71F WCI  22
FAITH            N/A     28  22  78 W14       29.77S WCI  17
MOBRIDGE       CLOUDY    24  21  88 CALM      29.75F
$$

SDZ012>016-024>037-041>051-057-063-072>074-141400-
SOUTHWEST AND SOUTH CENTRAL SOUTH DAKOTA

CITY           SKY/WX    TMP DP  RH WIND       PRES   REMARKS
RAPID CTY ARPT PTCLDY    28  22  78 NW5       29.83F WCI  23
PIERRE         CLOUDY    29  28  96 NW7       29.80S WCI  22
CUSTER         CLOUDY    27  17  66 W6        29.80F WCI  20
ELLSWORTH AFB  CLOUDY    27  23  84 W6        29.82F WCI  21
PHILIP         CLEAR     29  25  85 W8        29.82F WCI  21
PINE RIDGE     CLOUDY    28  22  78 W5        29.88F WCI  23
WINNER         CLOUDY    38  31  76 NW16G25   29.82R
$$

SDZ004>011-016>023-039-040-141400-
NORTHEAST SOUTH DAKOTA

CITY           SKY/WX    TMP DP  RH WIND       PRES   REMARKS
ABERDEEN       CLOUDY    16  12  84 S15       29.84F FOG     WCI   1
WATERTOWN      FLURRIES  12   6  77 S14       29.83F WCI  -3
BROOKINGS      LGT SNOW  12   8  84 S15       29.85F FOG     WCI  -4
SISSETON         N/A     13  10  88 S13       29.89F WCI  -2
$$

SDZ017-020-022-023-036>040-048>070-141400-
SOUTHEAST SOUTH DAKOTA

CITY           SKY/WX    TMP DP  RH WIND       PRES   REMARKS
SIOUX FALLS    CLOUDY    14  10  84 SE10      29.87F WCI   1
HURON          CLOUDY    15  11  83 S10       29.85S WCI   2
MITCHELL       CLOUDY    16  13  88 SE10      29.86S WCI   4
YANKTON        CLOUDY    18  12  79 E8        29.85S WCI   7
$$

ABBREVIATIONS USED IN REMARKS
   TC - TEMPERATURE IN CELSIUS
  WCI - WIND CHILL INDEX
   HX - HEAT INDEX
  VSB - VISIBILITY





USA.gov is the U.S. government's official web portal to all federal, state and local government web resources and services.